W7KKE-3 Weather Reports


time (UTC)temp
F
wind
direction
speed
knots
gust
knots
rain 1hr
in
rain 24hr
in
rain mn
in
humidity
%
barometer
mb
20220124105555 43 144 2.6 8.7 0.00 0.00 0.00 66 1023.4
20220124105054 43 156 3.5 8.7 0.00 0.00 0.00 66 1023.5
20220124104554 43 152 4.3 8.7 0.00 0.00 0.00 66 1023.3
20220124104054 43 142 3.5 8.7 0.00 0.00 0.00 66 1023.3
20220124103554 43 163 4.3 8.7 0.00 0.00 0.00 66 1023.3
20220124103054 43 140 1.7 8.7 0.00 0.00 0.00 66 1023.4
20220124102556 43 140 2.6 8.7 0.00 0.00 0.00 66 1023.4
20220124102054 43 144 3.5 8.7 0.00 0.00 0.00 66 1023.4
20220124101554 43 138 2.6 6.1 0.00 0.00 0.00 66 1023.4
20220124101055 43 175 0.9 7.0 0.00 0.00 0.00 66 1023.4
20220124100554 43 135 0.9 7.0 0.00 0.00 0.00 66 1023.5
20220124100054 43 165 1.7 7.0 0.00 0.00 0.00 66 1023.4
20220124095557 43 158 2.6 7.8 0.00 0.00 0.00 66 1023.4
20220124095054 44 166 3.5 7.8 0.00 0.00 0.00 66 1023.3
20220124094554 44 172 2.6 7.8 0.00 0.00 0.00 66 1023.3
20220124094054 44 140 2.6 7.8 0.00 0.00 0.00 68 1023.3
20220124093554 44 176 3.5 7.0 0.00 0.00 0.00 66 1023.3
20220124093054 44 144 2.6 7.0 0.00 0.00 0.00 66 1023.4
20220124092555 44 149 3.5 7.0 0.00 0.00 0.00 66 1023.4
20220124092054 44 151 0.9 6.1 0.00 0.00 0.00 66 1023.5
20220124091554 44 147 0.0 5.2 0.00 0.00 0.00 66 1023.6
20220124091054 44 144 0.0 5.2 0.00 0.00 0.00 66 1023.7
20220124090554 44 175 0.9 7.8 0.00 0.00 0.00 66 1023.6
20220124090054 44 140 3.5 7.8 0.00 0.00 0.00 66 1023.6
20220124085555 44 162 3.5 7.8 0.00 0.00 0.00 66 1023.7
20220124085054 44 142 4.3 7.0 0.00 0.00 0.00 66 1023.7
20220124084554 44 151 1.7 8.7 0.00 0.00 0.00 66 1023.7
20220124084054 44 149 3.5 8.7 0.00 0.00 0.00 66 1023.6
20220124083554 44 168 4.3 8.7 0.00 0.00 0.00 66 1023.6
20220124083054 44 156 4.3 6.1 0.00 0.00 0.00 66 1023.7
20220124082555 44 137 2.6 6.1 0.00 0.00 0.00 66 1023.6
20220124082054 44 151 2.6 9.6 0.00 0.00 0.00 66 1023.5
20220124081554 44 155 3.5 9.6 0.00 0.00 0.00 66 1023.6
20220124081054 44 163 1.7 9.6 0.00 0.00 0.00 66 1023.5
20220124080554 44 137 3.5 8.7 0.00 0.00 0.00 66 1023.4
20220124080054 44 134 3.5 7.0 0.00 0.00 0.00 66 1023.4
20220124075555 44 158 3.5 7.0 0.00 0.00 0.00 66 1023.5
20220124075054 44 140 3.5 7.0 0.00 0.00 0.00 66 1023.5
20220124074554 44 138 4.3 7.0 0.00 0.00 0.00 66 1023.6
20220124074054 44 148 4.3 8.7 0.00 0.00 0.00 66 1023.6
20220124073554 44 158 2.6 8.7 0.00 0.00 0.00 66 1023.7
20220124073054 44 170 3.5 8.7 0.00 0.00 0.00 66 1023.7
20220124072556 44 158 4.3 7.8 0.00 0.00 0.00 67 1023.7
20220124072054 44 162 3.5 7.8 0.00 0.00 0.00 67 1023.7
20220124071554 44 156 5.2 8.7 0.00 0.00 0.00 66 1023.8
20220124071054 44 165 4.3 8.7 0.00 0.00 0.00 66 1023.8
20220124070554 45 124 2.6 8.7 0.00 0.00 0.00 66 1023.9
20220124070054 45 133 3.5 8.7 0.00 0.00 0.00 66 1023.9
20220124065555 45 145 1.7 8.7 0.00 0.00 0.00 66 1023.9
20220124065054 45 149 5.2 7.8 0.00 0.00 0.00 66 1024.0
20220124064554 45 152 4.3 7.0 0.00 0.00 0.00 66 1023.9
20220124064054 45 151 2.6 7.0 0.00 0.00 0.00 66 1023.9
20220124063554 45 134 3.5 7.8 0.00 0.00 0.00 66 1023.9
20220124063054 45 165 0.9 7.8 0.00 0.00 0.00 67 1024.0
20220124062555 45 149 1.7 7.8 0.00 0.00 0.00 66 1024.1
20220124062054 45 144 1.7 5.2 0.00 0.00 0.00 66 1024.0
20220124061554 45 152 3.5 7.8 0.00 0.00 0.00 66 1024.0
20220124061054 45 155 0.9 7.8 0.00 0.00 0.00 66 1024.0
20220124060554 45 138 0.0 7.8 0.00 0.00 0.00 66 1024.0
20220124060054 45 121 1.7 9.6 0.00 0.00 0.00 66 1023.9
20220124055556 45 140 2.6 9.6 0.00 0.00 0.00 66 1023.8
20220124055054 46 137 1.7 9.6 0.00 0.00 0.00 66 1023.8
20220124054555 46 158 2.6 7.8 0.00 0.00 0.00 65 1023.9
20220124053554 46 135 0.9 7.0 0.00 0.00 0.00 65 1023.8
20220124053054 46 88 3.5 7.0 0.00 0.00 0.00 64 1023.8
20220124052555 46 155 4.3 7.0 0.00 0.00 0.00 62 1023.8
20220124052054 46 169 4.3 7.0 0.00 0.00 0.00 66 1023.8
20220124051554 46 130 2.6 6.1 0.00 0.00 0.00 66 1023.8
20220124051054 46 158 1.7 6.1 0.00 0.00 0.00 66 1023.8
20220124050554 46 158 1.7 6.1 0.00 0.00 0.00 66 1023.8
20220124050054 46 163 2.6 7.0 0.00 0.00 0.00 66 1023.9
20220124045555 46 147 2.6 7.0 0.00 0.00 0.00 66 1023.9
20220124045054 46 151 0.9 7.0 0.00 0.00 0.00 66 1023.9
20220124044554 46 133 1.7 7.0 0.00 0.00 0.00 66 1023.9
20220124044054 46 147 3.5 7.0 0.00 0.00 0.00 66 1023.9
20220124043554 46 151 3.5 7.0 0.00 0.00 0.00 66 1024.0
20220124043054 47 169 4.3 7.0 0.00 0.00 0.00 66 1023.9
20220124042554 47 155 4.3 7.0 0.00 0.00 0.00 64 1023.9
20220124042054 47 151 5.2 7.0 0.00 0.00 0.00 65 1024.0
20220124041554 48 161 4.3 7.0 0.00 0.00 0.00 62 1023.9
20220124041056 48 147 3.5 7.0 0.00 0.00 0.00 62 1023.9
20220124040555 48 147 1.7 5.2 0.00 0.00 0.00 62 1023.9
20220124040054 48 133 2.6 6.1 0.00 0.00 0.00 63 1023.8
20220124035555 48 162 1.7 6.1 0.00 0.00 0.00 62 1023.9
20220124035054 48 187 0.9 6.1 0.00 0.00 0.00 62 1023.9
20220124034554 48 156 2.6 7.8 0.00 0.00 0.00 62 1023.9
20220124034055 48 162 1.7 7.8 0.00 0.00 0.00 66 1023.9
20220124033554 48 152 1.7 7.8 0.00 0.00 0.00 64 1023.9
20220124033054 48 147 3.5 6.1 0.00 0.00 0.00 66 1023.8
20220124032554 48 142 2.6 6.1 0.00 0.00 0.00 66 1023.9
20220124032055 48 123 0.9 6.1 0.00 0.00 0.00 66 1024.0
20220124031555 48 151 0.9 6.1 0.00 0.00 0.00 66 1024.0
20220124031054 48 148 4.3 6.1 0.00 0.00 0.00 66 1024.0
20220124030554 48 149 1.7 7.8 0.00 0.00 0.00 66 1024.0
20220124030053 48 145 2.6 7.8 0.00 0.00 0.00 66 1024.0
20220124025554 48 163 3.5 7.8 0.00 0.00 0.00 66 1024.0
20220124025053 48 168 2.6 7.0 0.00 0.00 0.00 66 1024.0
20220124024553 49 135 4.3 7.0 0.00 0.00 0.00 66 1023.9
20220124024054 49 133 2.6 7.0 0.00 0.00 0.00 66 1023.8
20220124023556 48 163 1.7 7.0 0.00 0.00 0.00 66 1023.8
20220124022555 49 162 0.0 7.0 0.00 0.00 0.00 67 1023.8
20220124022053 49 123 1.7 5.2 0.00 0.00 0.00 66 1023.7
20220124021553 49 152 1.7 5.2 0.00 0.00 0.00 66 1023.6
20220124021054 49 151 0.9 7.8 0.00 0.00 0.00 67 1023.5
20220124020553 49 140 2.6 7.8 0.00 0.00 0.00 66 1023.4
20220124020053 49 156 0.9 7.8 0.00 0.00 0.00 67 1023.3
20220124015554 49 177 1.7 7.8 0.00 0.00 0.00 67 1023.3
20220124015053 49 156 0.9 5.2 0.00 0.00 0.00 67 1023.3
20220124014555 49 0 0.9 5.2 0.00 0.00 0.00 68 1023.3
20220124014056 49 183 0.0 5.2 0.00 0.00 0.00 70 1023.2
20220124013553 49 142 0.0 3.5 0.00 0.00 0.00 70 1023.2
20220124013053 49 95 0.0 3.5 0.00 0.00 0.00 70 1023.2
20220124012554 49 145 0.0 3.5 0.00 0.00 0.00 70 1023.2
20220124012053 49 0 0.0 0.0 0.00 0.00 0.00 70 1023.2
20220124011553 50 0 0.0 0.0 0.00 0.00 0.00 70 1023.2
20220124011054 50 0 0.0 0.0 0.00 0.00 0.00 70 1023.2
20220124010553 50 0 0.0 0.0 0.00 0.00 0.00 70 1023.3
20220124010056 51 0 0.0 0.0 0.00 0.00 0.00 71 1023.2
20220124005557 51 0 0.0 0.0 0.00 0.00 0.00 70 1023.3
20220124005053 51 0 0.0 0.0 0.00 0.00 0.00 70 1023.3
20220124004553 51 0 0.0 0.0 0.00 0.00 0.00 70 1023.3
20220124004054 51 0 0.0 0.0 0.00 0.00 0.00 70 1023.3
20220124003553 51 0 0.0 0.0 0.00 0.00 0.00 70 1023.3
20220124003053 51 0 0.0 0.0 0.00 0.00 0.00 68 1023.2
20220124002554 51 0 0.0 0.0 0.00 0.00 0.00 68 1023.1
20220124002053 51 0 0.0 0.0 0.00 0.00 0.00 68 1023.1
20220124001553 51 0 0.0 0.0 0.00 0.00 0.00 69 1023.1
20220124001054 51 0 0.0 0.0 0.00 0.00 0.00 66 1023.1
20220124000553 52 0 0.0 0.0 0.00 0.00 0.00 66 1023.2
20220124000053 52 0 0.0 0.0 0.00 0.00 0.00 66 1023.1
20220123235554 52 0 0.0 0.0 0.00 0.00 0.00 66 1023.1
20220123235053 52 0 0.0 2.6 0.00 0.00 0.00 66 1023.0
20220123234553 52 0 0.0 2.6 0.00 0.00 0.00 66 1022.9
20220123234054 52 315 0.0 2.6 0.00 0.00 0.00 68 1022.9
20220123233553 52 16 0.0 6.1 0.00 0.00 0.00 67 1022.9
20220123233053 51 352 0.0 6.1 0.00 0.00 0.00 66 1022.9
20220123232554 51 1 0.9 6.1 0.00 0.00 0.00 67 1023.0
20220123232054 51 5 3.5 6.1 0.00 0.00 0.00 66 1023.0
20220123231554 51 2 3.5 6.1 0.00 0.00 0.00 67 1023.1
20220123231054 52 338 2.6 5.2 0.00 0.00 0.00 66 1023.0
20220123230553 52 327 0.9 4.3 0.00 0.00 0.00 66 1023.0
20220123230053 52 327 0.0 3.5 0.00 0.00 0.00 69 1023.0
20220123225557 52 309 1.7 6.1 0.00 0.00 0.00 67 1023.0
20220123224553 52 336 2.6 6.1 0.00 0.00 0.00 68 1022.9
20220123224054 52 9 1.7 8.7 0.00 0.00 0.00 70 1022.9
20220123223553 52 354 5.2 8.7 0.00 0.00 0.00 69 1022.9
20220123223053 52 352 4.3 8.7 0.00 0.00 0.00 70 1023.0
20220123222554 52 2 6.1 8.7 0.00 0.00 0.00 70 1023.1
20220123222053 52 354 6.1 8.7 0.00 0.00 0.00 70 1023.1
20220123221553 52 348 7.0 7.8 0.00 0.00 0.00 70 1023.1
20220123221054 52 357 5.2 7.8 0.00 0.00 0.00 68 1023.1
20220123220553 52 12 6.1 7.8 0.00 0.00 0.00 70 1023.0
20220123220053 52 352 5.2 7.8 0.00 0.00 0.00 70 1023.0
20220123215554 52 357 5.2 8.7 0.00 0.00 0.00 70 1022.9
20220123215053 52 12 5.2 8.7 0.00 0.00 0.00 69 1022.9
20220123214553 52 0 6.1 8.7 0.00 0.00 0.00 68 1022.9
20220123214054 52 4 7.0 7.8 0.00 0.00 0.00 66 1022.9
20220123213553 52 12 3.5 6.1 0.00 0.00 0.00 66 1022.9
20220123213053 52 344 4.3 5.2 0.00 0.00 0.00 66 1022.9
20220123212554 52 347 2.6 4.3 0.00 0.00 0.00 68 1022.9
20220123212053 52 4 0.0 4.3 0.00 0.00 0.00 66 1023.1
20220123211553 52 345 0.0 4.3 0.00 0.00 0.00 66 1023.1
20220123211054 52 315 0.9 4.3 0.00 0.00 0.00 66 1023.1
20220123210553 52 306 0.9 3.5 0.00 0.00 0.00 66 1023.1
20220123210053 53 313 0.0 6.1 0.00 0.00 0.00 66 1023.2
20220123205554 53 344 1.7 6.1 0.00 0.00 0.00 65 1023.3
20220123205053 54 333 0.9 6.1 0.00 0.00 0.00 64 1023.4
20220123204554 54 336 3.5 6.1 0.00 0.00 0.00 62 1023.5
20220123204054 55 345 3.5 6.1 0.00 0.00 0.00 62 1023.5
20220123203553 55 15 4.3 6.1 0.00 0.00 0.00 59 1023.6
20220123203053 56 337 4.3 4.3 0.00 0.00 0.00 58 1023.5
20220123202554 56 0 1.7 4.3 0.00 0.00 0.00 62 1023.5
20220123202055 56 0 0.0 4.3 0.00 0.00 0.00 62 1023.5
20220123201553 55 308 0.0 4.3 0.00 0.00 0.00 62 1023.5
20220123201054 55 340 0.0 4.3 0.00 0.00 0.00 63 1023.6
20220123200553 55 357 1.7 5.2 0.00 0.00 0.00 62 1023.7
20220123200053 55 357 2.6 5.2 0.00 0.00 0.00 63 1023.7
20220123195554 54 16 2.6 5.2 0.00 0.00 0.00 66 1023.7
20220123195053 53 357 0.9 5.2 0.00 0.00 0.00 62 1023.8
20220123194553 52 21 0.0 5.2 0.00 0.00 0.00 62 1023.7
20220123194054 51 0 0.0 4.3 0.00 0.00 0.00 62 1023.8
20220123193553 50 301 0.0 4.3 0.00 0.00 0.00 62 1023.8
20220123193053 50 282 0.0 4.3 0.00 0.00 0.00 66 1023.8
20220123192555 49 275 0.0 4.3 0.00 0.00 0.00 66 1023.7
20220123192053 49 219 0.0 3.5 0.00 0.00 0.00 66 1023.8
20220123191553 49 107 0.0 7.0 0.00 0.00 0.00 69 1023.8
20220123191054 48 107 0.0 7.0 0.00 0.00 0.00 69 1023.8
20220123190553 48 176 0.0 7.0 0.00 0.00 0.00 70 1023.9
20220123190053 47 198 0.0 5.2 0.00 0.00 0.00 71 1024.0
20220123185554 47 204 0.0 4.3 0.00 0.00 0.00 70 1024.1
20220123185053 46 176 0.0 3.5 0.00 0.00 0.00 70 1024.2
20220123184553 46 0 0.0 0.0 0.00 0.00 0.00 70 1024.3
20220123184053 46 0 0.0 0.0 0.00 0.00 0.00 73 1024.3
20220123183553 46 0 0.0 0.0 0.00 0.00 0.00 73 1024.2
20220123183053 45 0 0.0 6.1 0.00 0.00 0.00 74 1024.3
20220123182554 45 214 0.0 6.1 0.00 0.00 0.00 74 1024.2
20220123182053 44 177 1.7 6.1 0.00 0.00 0.00 74 1024.2
20220123181553 44 191 0.0 4.3 0.00 0.00 0.00 74 1024.3
20220123181054 44 0 0.0 4.3 0.00 0.00 0.00 74 1024.3
20220123180553 43 204 0.0 4.3 0.00 0.00 0.00 74 1024.3
20220123180053 43 204 0.0 3.5 0.00 0.00 0.00 74 1024.3
20220123175554 43 182 0.0 3.5 0.00 0.00 0.00 74 1024.3
20220123175053 43 95 0.0 3.5 0.00 0.00 0.00 74 1024.3
20220123174553 43 211 0.0 3.5 0.00 0.00 0.00 74 1024.3
20220123174053 42 161 0.0 3.5 0.00 0.00 0.00 74 1024.3
20220123173553 42 210 0.9 3.5 0.00 0.00 0.00 74 1024.3
20220123173053 42 193 0.0 3.5 0.00 0.00 0.00 74 1024.4
20220123172554 42 217 0.0 4.3 0.00 0.00 0.00 73 1024.3
20220123172053 42 0 0.0 4.3 0.00 0.00 0.00 72 1024.4
20220123171553 42 193 0.0 4.3 0.00 0.00 0.00 72 1024.4
20220123171053 42 148 0.0 3.5 0.00 0.00 0.00 70 1024.3
20220123170553 42 154 0.0 2.6 0.00 0.00 0.00 70 1024.4
20220123170053 42 240 0.0 4.3 0.00 0.00 0.00 70 1024.4
20220123165554 42 240 0.0 4.3 0.00 0.00 0.00 70 1024.4
20220123165053 42 260 0.0 4.3 0.00 0.00 0.00 70 1024.3
20220123164553 42 282 0.0 3.5 0.00 0.00 0.00 70 1024.3
20220123164053 42 126 0.0 3.5 0.00 0.00 0.00 70 1024.3
20220123163553 42 135 0.0 11.3 0.00 0.00 0.00 70 1024.3
20220123163053 41 107 4.3 11.3 0.00 0.00 0.00 70 1024.4
20220123162554 41 201 0.0 11.3 0.00 0.00 0.00 70 1024.4
20220123162054 41 106 3.5 6.1 0.00 0.00 0.00 70 1024.4
20220123161553 41 172 0.0 6.1 0.00 0.00 0.00 70 1024.4
20220123161053 41 50 0.0 6.1 0.00 0.00 0.00 70 1024.4
20220123160553 41 130 0.0 5.2 0.00 0.00 0.00 70 1024.5
20220123160053 41 172 0.0 5.2 0.00 0.00 0.00 70 1024.5
20220123155554 41 247 0.0 4.3 0.00 0.00 0.00 70 1024.5
20220123155053 41 106 0.9 5.2 0.00 0.00 0.00 70 1024.5
20220123154554 41 0 0.0 5.2 0.00 0.00 0.00 70 1024.5
20220123154055 41 145 0.0 5.2 0.00 0.00 0.00 72 1024.5
20220123153553 41 133 1.7 6.1 0.00 0.00 0.00 70 1024.5
20220123153053 41 151 0.0 6.1 0.00 0.00 0.00 73 1024.5
20220123152554 41 130 0.0 6.1 0.00 0.00 0.00 70 1024.5
20220123152054 41 201 0.0 4.3 0.00 0.00 0.00 70 1024.5
20220123151554 41 116 1.7 4.3 0.00 0.00 0.00 70 1024.6
20220123151053 41 0 0.0 4.3 0.00 0.00 0.00 70 1024.6
20220123150553 41 154 0.0 4.3 0.00 0.00 0.00 70 1024.6
20220123150053 41 214 0.0 6.1 0.00 0.00 0.00 70 1024.5
20220123145554 41 169 0.0 6.1 0.00 0.00 0.00 70 1024.6
20220123145053 42 156 0.0 6.1 0.00 0.00 0.00 70 1024.5
20220123144553 41 152 1.7 6.1 0.00 0.00 0.00 70 1024.5
20220123144053 41 156 1.7 7.8 0.00 0.00 0.00 70 1024.5
20220123143553 42 120 0.0 7.8 0.00 0.00 0.00 70 1024.5
20220123143053 42 191 0.0 7.8 0.00 0.00 0.00 70 1024.4
20220123142554 42 142 2.6 4.3 0.00 0.00 0.00 70 1024.4
20220123142053 42 70 1.7 4.3 0.00 0.00 0.00 70 1024.4
20220123141553 42 128 0.0 4.3 0.00 0.00 0.00 70 1024.4
20220123141053 42 110 0.0 7.0 0.00 0.00 0.00 70 1024.4
20220123140553 42 152 0.9 7.0 0.00 0.00 0.00 70 1024.4
20220123140053 42 152 0.0 7.0 0.00 0.00 0.00 70 1024.4
20220123135554 42 130 2.6 4.3 0.00 0.00 0.00 70 1024.3
20220123135053 42 123 0.0 4.3 0.00 0.00 0.00 70 1024.4
20220123134553 42 131 0.9 6.1 0.00 0.00 0.00 70 1024.4
20220123134053 42 138 0.0 6.1 0.00 0.00 0.00 70 1024.4
20220123133553 42 158 1.7 6.1 0.00 0.00 0.00 70 1024.4
20220123133053 42 180 0.0 5.2 0.00 0.00 0.00 70 1024.4
20220123132554 42 149 0.0 13.0 0.00 0.00 0.00 70 1024.4
20220123132053 42 142 2.6 13.0 0.00 0.00 0.00 70 1024.4
20220123131553 42 186 0.0 13.0 0.00 0.00 0.00 70 1024.4
20220123131053 42 148 0.0 7.0 0.00 0.00 0.00 70 1024.4
20220123130553 42 119 0.0 7.0 0.00 0.00 0.00 70 1024.4
20220123130053 42 156 0.0 6.1 0.00 0.01 0.00 70 1024.4
20220123125554 42 203 2.6 6.1 0.00 0.01 0.00 70 1024.3
20220123125053 42 156 0.0 6.1 0.00 0.01 0.00 70 1024.4
20220123124553 42 128 0.0 4.3 0.00 0.01 0.00 70 1024.4
20220123124053 43 162 0.9 4.3 0.00 0.01 0.00 70 1024.4
20220123123553 43 196 0.9 9.6 0.00 0.01 0.00 70 1024.4
20220123123053 43 190 0.9 9.6 0.00 0.01 0.00 70 1024.4
20220123122554 43 135 0.9 9.6 0.00 0.01 0.00 70 1024.4
20220123122053 43 130 0.0 7.8 0.00 0.01 0.00 70 1024.4
20220123121553 43 148 0.9 7.8 0.00 0.01 0.00 70 1024.4
20220123121053 43 134 0.0 7.8 0.00 0.01 0.00 70 1024.5
20220123120553 43 158 0.0 7.8 0.00 0.01 0.00 70 1024.4
20220123120053 43 113 0.0 7.8 0.00 0.01 0.00 70 1024.5
20220123115554 43 170 1.7 7.8 0.00 0.01 0.00 70 1024.6
20220123115053 43 127 0.0 7.0 0.00 0.01 0.00 70 1024.6
20220123114553 42 141 0.0 7.0 0.00 0.01 0.00 70 1024.6
20220123114053 42 154 1.7 7.8 0.00 0.01 0.00 72 1024.6
20220123113553 42 124 0.9 7.8 0.00 0.01 0.00 73 1024.7
20220123113053 42 156 3.5 7.8 0.00 0.01 0.00 74 1024.7
20220123112554 42 172 1.7 7.0 0.00 0.01 0.00 74 1024.7
20220123112053 42 137 0.0 7.0 0.00 0.01 0.00 74 1024.8
20220123111553 42 156 0.0 6.1 0.00 0.01 0.00 74 1024.8
20220123111053 42 135 0.0 6.1 0.00 0.01 0.00 74 1024.9
20220123110553 42 135 0.9 6.1 0.00 0.01 0.00 74 1024.9
20220123110053 43 142 0.0 4.3 0.00 0.01 0.00 74 1024.9